TimeCDT,TemperatureF,Dew PointF,Humidity,Sea Level PressureIn,VisibilityMPH,Wind Direction,Wind SpeedMPH,Gust SpeedMPH,PrecipitationIn,Events,Conditions,WindDirDegrees,DateUTC
12:25 AM,28.4,24.8,86,29.72,10.0,Calm,Calm,-,N/A,,Scattered Clouds,0,2012-10-20 05:25:00
12:33 AM,28.4,26.6,93,29.72,10.0,Calm,Calm,-,N/A,,Mostly Cloudy,0,2012-10-20 05:33:00
12:46 AM,28.4,24.8,86,29.72,10.0,Calm,Calm,-,N/A,,Scattered Clouds,0,2012-10-20 05:46:00
12:53 AM,28.0,26.1,92,29.76,9.0,Calm,Calm,-,N/A,,Mostly Cloudy,0,2012-10-20 05:53:00
12:58 AM,28.4,26.6,93,29.72,1.8,NNE,4.6,-,N/A,,Mostly Cloudy,30,2012-10-20 05:58:00
1:06 AM,28.4,26.6,93,29.72,0.2,NNE,3.5,-,N/A,Fog,Light Freezing Fog,30,2012-10-20 06:06:00
1:16 AM,28.4,26.6,93,29.72,1.5,Calm,Calm,-,N/A,,Overcast,0,2012-10-20 06:16:00
1:19 AM,28.4,26.6,93,29.72,3.0,Calm,Calm,-,N/A,,Overcast,0,2012-10-20 06:19:00
1:40 AM,26.6,23.0,86,29.73,1.0,Calm,Calm,-,N/A,,Mist,0,2012-10-20 06:40:00
1:53 AM,27.0,25.0,92,29.77,1.0,Calm,Calm,-,N/A,,Mostly Cloudy,0,2012-10-20 06:53:00
2:22 AM,28.4,26.6,93,29.74,0.5,Calm,Calm,-,N/A,Fog,Light Freezing Fog,0,2012-10-20 07:22:00
2:53 AM,30.9,28.9,92,29.78,0.2,Calm,Calm,-,N/A,Fog,Light Freezing Fog,0,2012-10-20 07:53:00
3:53 AM,32.0,32.0,100,29.77,0.2,Calm,Calm,-,N/A,Fog,Fog,0,2012-10-20 08:53:00
5:53 AM,33.1,33.1,100,29.80,0.2,Calm,Calm,-,N/A,Fog,Fog,0,2012-10-20 10:53:00
6:53 AM,33.1,32.0,96,29.82,0.2,Calm,Calm,-,N/A,Fog,Fog,0,2012-10-20 11:53:00
7:21 AM,33.8,30.2,87,29.78,1.0,Calm,Calm,-,N/A,,Overcast,0,2012-10-20 12:21:00
7:31 AM,33.8,32.0,93,29.78,0.5,Calm,Calm,-,N/A,Fog,Fog,0,2012-10-20 12:31:00
7:53 AM,32.0,32.0,100,29.83,0.2,Calm,Calm,-,N/A,Fog,Fog,0,2012-10-20 12:53:00
8:53 AM,33.1,32.0,96,29.84,0.2,Calm,Calm,-,N/A,Fog,Fog,0,2012-10-20 13:53:00
9:53 AM,35.1,35.1,100,29.85,0.2,Calm,Calm,-,N/A,Fog,Fog,0,2012-10-20 14:53:00
10:53 AM,37.9,37.0,97,29.85,0.2,Calm,Calm,-,N/A,Fog,Fog,0,2012-10-20 15:53:00
11:53 AM,39.0,37.9,96,29.85,1.0,Calm,Calm,-,N/A,,Overcast,0,2012-10-20 16:53:00
12:02 PM,39.2,39.2,100,29.81,1.2,South,3.5,-,N/A,,Overcast,180,2012-10-20 17:02:00
12:11 PM,41.0,39.2,93,29.80,3.0,Calm,Calm,-,N/A,,Overcast,0,2012-10-20 17:11:00
12:53 PM,43.0,39.9,89,29.83,10.0,Calm,Calm,-,N/A,,Overcast,0,2012-10-20 17:53:00
1:53 PM,45.0,39.9,82,29.84,10.0,Variable,3.5,-,N/A,,Overcast,0,2012-10-20 18:53:00
2:13 PM,46.4,39.2,76,29.79,10.0,Calm,Calm,-,N/A,,Scattered Clouds,0,2012-10-20 19:13:00
2:53 PM,48.9,39.9,71,29.82,10.0,Calm,Calm,-,N/A,,Clear,0,2012-10-20 19:53:00
3:53 PM,50.0,39.9,68,29.82,10.0,Variable,3.5,-,N/A,,Clear,0,2012-10-20 20:53:00
4:53 PM,50.0,37.9,63,29.82,10.0,Calm,Calm,-,N/A,,Clear,0,2012-10-20 21:53:00
5:53 PM,46.9,37.9,71,29.81,10.0,SE,4.6,-,N/A,,Clear,140,2012-10-20 22:53:00
6:53 PM,37.9,36.0,93,29.84,10.0,Calm,Calm,-,N/A,,Clear,0,2012-10-20 23:53:00
7:53 PM,37.0,33.1,86,29.84,10.0,Calm,Calm,-,N/A,,Clear,0,2012-10-21 00:53:00
8:53 PM,34.0,32.0,92,29.86,10.0,Calm,Calm,-,N/A,,Clear,0,2012-10-21 01:53:00
9:53 PM,32.0,30.0,92,29.87,10.0,Calm,Calm,-,N/A,,Clear,0,2012-10-21 02:53:00
10:53 PM,30.9,28.0,89,29.87,10.0,Calm,Calm,-,N/A,,Clear,0,2012-10-21 03:53:00
11:53 PM,30.9,28.0,89,29.88,10.0,Calm,Calm,-,N/A,,Clear,0,2012-10-21 04:53:00